WetterOnline ( http://www.wetteronline.de )

Wetter aktuell Plön

Aktuelles Wetter: Dörnick (28m)

6-stündlich | Neueste Meldungen
Ortszeit Temperatur Wetter
So, 20.01. 1:00 -1.6° C wolkenlos
Sa, 19.01. 19:00 -1.1° C wolkig
Sa, 19.01. 13:00 -0.0° C wolkig
Sa, 19.01. 7:00 -0.5° C Nebel
Sa, 19.01. 1:00 0.3° C bedeckt
Fr, 18.01. 19:00 -0.1° C bewölkt
Fr, 18.01. 13:00 1.0° C fast wolkenlos
Fr, 18.01. 7:00 -4.3° C wolkenlos
Ortszeit Temperatur Wetter
So, 20.01. 6:00 -2.3° C bedeckt
So, 20.01. 5:40 -2.3° C bedeckt
So, 20.01. 5:30 -2.4° C bedeckt
So, 20.01. 5:20 -2.4° C bedeckt
So, 20.01. 5:10 -2.4° C bedeckt
So, 20.01. 5:00 -2.4° C bedeckt
So, 20.01. 4:50 -2.4° C bedeckt
So, 20.01. 4:30 -2.1° C bedeckt
So, 20.01. 4:00 -3.5° C bedeckt
So, 20.01. 3:30 -4.0° C bedeckt
So, 20.01. 3:00 -4.6° C bewölkt
Ortszeit Relative Feuchte Sichtweite
So, 20.01. 1:00 91% 4.9 km
Sa, 19.01. 19:00 88% 8 km
Sa, 19.01. 13:00 80% 10 km
Sa, 19.01. 7:00 100% 100 m
Sa, 19.01. 1:00 100% 1.1 km
Fr, 18.01. 19:00 96% 15 km
Fr, 18.01. 13:00 86% 29 km
Fr, 18.01. 7:00 88% 45 km
Ortszeit Relative Feuchte Sichtweite
So, 20.01. 6:00 94% 2.7 km
So, 20.01. 5:40 95% -
So, 20.01. 5:30 96% 2.4 km
So, 20.01. 5:20 96% -
So, 20.01. 5:10 96% -
So, 20.01. 5:00 96% 2.4 km
So, 20.01. 4:50 96% -
So, 20.01. 4:30 97% 2.1 km
So, 20.01. 4:00 99% 2.9 km
So, 20.01. 3:30 96% 2.6 km
So, 20.01. 3:00 95% 3.6 km
Ortszeit Niederschlagsmenge Niederschlagsart
So, 20.01. 1:00 0.0 l/m2 in 6 Std. -
Sa, 19.01. 19:00 0.0 l/m2 in 12 Std. -
Sa, 19.01. 13:00 0.0 l/m2 in 6 Std. -
Sa, 19.01. 7:00 0.0 l/m2 in 12 Std. -
Sa, 19.01. 1:00 0.0 l/m2 in 6 Std. -
Fr, 18.01. 19:00 0.0 l/m2 in 12 Std. -
Fr, 18.01. 13:00 0.0 l/m2 in 6 Std. -
Fr, 18.01. 7:00 2 l/m2 in 12 Std. -
Ortszeit Niederschlagsmenge Niederschlagsart
So, 20.01. 6:00 0.0 l/m2 in 1 Std. -
So, 20.01. 5:40 keine Meldung -
So, 20.01. 5:30 0.0 l/m2 in 1 Std. -
So, 20.01. 5:20 keine Meldung -
So, 20.01. 5:10 keine Meldung -
So, 20.01. 5:00 0.0 l/m2 in 1 Std. -
So, 20.01. 4:50 keine Meldung -
So, 20.01. 4:30 0.0 l/m2 in 1 Std. -
So, 20.01. 4:00 0.0 l/m2 in 1 Std. -
So, 20.01. 3:30 0.0 l/m2 in 1 Std. -
So, 20.01. 3:00 0.0 l/m2 in 1 Std. -
Ortszeit Stärke Spitze Richtung
km/h Bft. km/h Grad Sektor
So, 20.01. 1:00 9 2 13 150° SO
Sa, 19.01. 19:00 4 1 11 130° SO
Sa, 19.01. 13:00 7 2 14 210° SW
Sa, 19.01. 7:00 7 2 18 210° SW
Sa, 19.01. 1:00 7 2 22 240° SW
Fr, 18.01. 19:00 7 2 20 250° W
Fr, 18.01. 13:00 13 3 26 260° W
Fr, 18.01. 7:00 7 2 32 270° W
Ortszeit Stärke Spitze Richtung
km/h Bft. km/h Grad Sektor
So, 20.01. 6:00 6 1 7 110° O
So, 20.01. 5:40 6 1 - 100° O
So, 20.01. 5:30 4 1 7 90° O
So, 20.01. 5:20 4 1 - 90° O
So, 20.01. 5:10 4 1 - 110° O
So, 20.01. 5:00 6 1 7 110° O
So, 20.01. 4:50 6 1 - 110° O
So, 20.01. 4:30 4 1 7 100° O
So, 20.01. 4:00 4 1 7 130° SO
So, 20.01. 3:30 2 1 4 80° O
So, 20.01. 3:00 0 0 4 - -
Ortszeit Untergrenze Bedeckung Gattung
total tief tief mittel hoch
So, 20.01. 1:00 - 0/8 0/8 - - -
Sa, 19.01. 19:00 7200 m 8/8 0/8 - - -
Sa, 19.01. 13:00 4500 m 8/8 8/8 - - -
Sa, 19.01. 7:00 <30 m 8/8 8/8 - - -
Sa, 19.01. 1:00 30 m 8/8 8/8 - - -
Fr, 18.01. 19:00 6000 m 8/8 7/8 - - -
Fr, 18.01. 13:00 1500 m 1/8 1/8 - - -
Fr, 18.01. 7:00 - 0/8 0/8 - - -
Ortszeit Bedeckungsgrad in Achtel und Wolkenuntergrenze
So, 20.01. 6:00 8(3600m)
So, 20.01. 5:40 1(3000m) 8(3600m)
So, 20.01. 5:30 1(3000m) 8(3600m)
So, 20.01. 5:20 1(3000m) 8(3600m)
So, 20.01. 5:10 8(3600m)
So, 20.01. 5:00 2(3000m) 8(3900m)
So, 20.01. 4:50 2(3000m) 8(3900m)
So, 20.01. 4:30 8(3900m)
So, 20.01. 4:00 8(3900m)
So, 20.01. 3:30 8(3900m)
So, 20.01. 3:00 7(3900m)
Ortszeit Luftdruck NN (hPa) Tendenz (hPa in 3 Std.)
So, 20.01. 1:00 1019 - 0,1
Sa, 19.01. 19:00 1019 - 0,1
Sa, 19.01. 13:00 1020 - 0,4
Sa, 19.01. 7:00 1019 - 0,1
Sa, 19.01. 1:00 1020 + 0,5
Fr, 18.01. 19:00 1018 + 0,8
Fr, 18.01. 13:00 1016 + 1,1
Fr, 18.01. 7:00 1014 + 2,2
Ortszeit Luftdruck NN (hPa) Tendenz (hPa in 3 Std.)
So, 20.01. 6:00 1018 0,0
So, 20.01. 5:40 1018 keine Meldung
So, 20.01. 5:30 1018 - 0,2
So, 20.01. 5:20 1018 keine Meldung
So, 20.01. 5:10 1018 keine Meldung
So, 20.01. 5:00 1018 - 0,2
So, 20.01. 4:50 1018 keine Meldung
So, 20.01. 4:30 1018 - 0,1
So, 20.01. 4:00 1018 - 0,2
So, 20.01. 3:30 1019 - 0,1
So, 20.01. 3:00 1019 - 0,2
Ortszeit Schneehöhe (cm)
So, 20.01. 1:00 0
Sa, 19.01. 19:00 0
Sa, 19.01. 13:00 0
Sa, 19.01. 7:00 0
Sa, 19.01. 1:00 0
Fr, 18.01. 19:00 0
Fr, 18.01. 13:00 -
Fr, 18.01. 7:00 1
Ortszeit Schneehöhe (cm)
So, 20.01. 6:00 0
So, 20.01. 5:40 0
So, 20.01. 5:30 0
So, 20.01. 5:20 0
So, 20.01. 5:10 0
So, 20.01. 5:00 0
So, 20.01. 4:50 0
So, 20.01. 4:30 0
So, 20.01. 4:00 0
So, 20.01. 3:30 0
So, 20.01. 3:00 0
Link zu dieser Seite / Seite empfehlen

Das Wetter in ...